• In Hungary
  • List of Countries
  • For 7 days
  • Water Temperature
  • Satellite Maps
  • Weather Map
  • News
  • Weather Widgets
  • user-avatar
    Login

    Hourly Weather Podglyadnevo

    Today, 15 November, Thursday

    Time Temperature Precipitation Wind Pressure Humidity
    00:00 -2°C° 0.1 mm 3 mps 751 mmHg 85%
    01:00 -1°C° 0.1 mm 3 mps 751 mmHg 85%
    02:00 -2°C° 0 mm 2 mps 752 mmHg 89%
    03:00 -2°C° 0 mm 2 mps 752 mmHg 88%
    04:00 -2°C° 0 mm 3 mps 752 mmHg 88%
    05:00 -2°C° 0 mm 3 mps 753 mmHg 87%
    06:00 -2°C° 0 mm 3 mps 753 mmHg 86%
    07:00 -2°C° 0 mm 3 mps 754 mmHg 85%
    08:00 -2°C° 0 mm 2 mps 754 mmHg 84%
    09:00 -2°C° 0 mm 2 mps 755 mmHg 83%
    10:00 -1°C° 0 mm 2 mps 755 mmHg 81%
    11:00 -1°C° 0 mm 2 mps 756 mmHg 80%
    12:00 +1°C° 0 mm 2 mps 756 mmHg 80%
    13:00 +1°C° 0 mm 2 mps 756 mmHg 79%
    14:00 +1°C° 0 mm 2 mps 757 mmHg 79%
    15:00 -1°C° 0 mm 2 mps 757 mmHg 81%
    16:00 -2°C° 0 mm 2 mps 758 mmHg 83%
    17:00 -2°C° 0 mm 2 mps 758 mmHg 85%
    18:00 -3°C° 0 mm 2 mps 759 mmHg 85%
    19:00 -3°C° 0 mm 2 mps 759 mmHg 84%
    20:00 -3°C° 0 mm 2 mps 759 mmHg 83%
    21:00 -1°C° 0 mm 1 mps 760 mmHg 82%
    22:00 -1°C° 0 mm 1 mps 760 mmHg 81%
    23:00 -2°C° 0 mm 1 mps 760 mmHg 80%

    Tomorrow, 16 November, Friday

    Time Temperature Precipitation Wind Pressure Humidity
    00:00 -2°C° 0 mm 1 mps 761 mmHg 79%
    01:00 -2°C° 0 mm 1 mps 761 mmHg 78%
    02:00 -2°C° 0 mm 1 mps 761 mmHg 77%
    03:00 -2°C° 0 mm 1 mps 762 mmHg 76%
    04:00 -2°C° 0 mm 1 mps 762 mmHg 74%
    05:00 -2°C° 0 mm 1 mps 762 mmHg 73%
    06:00 -4°C° 0 mm 2 mps 762 mmHg 72%
    07:00 -4°C° 0 mm 2 mps 763 mmHg 70%
    08:00 -4°C° 0 mm 2 mps 763 mmHg 69%
    09:00 -3°C° 0 mm 2 mps 763 mmHg 64%
    10:00 -2°C° 0 mm 2 mps 763 mmHg 58%
    11:00 -1°C° 0 mm 2 mps 763 mmHg 53%
    12:00 -1°C° 0 mm 2 mps 763 mmHg 54%
    13:00 -1°C° 0 mm 2 mps 763 mmHg 54%
    14:00 +2°C° 0 mm 1 mps 763 mmHg 54%
    15:00 +1°C° 0 mm 1 mps 763 mmHg 56%
    16:00 -2°C° 0 mm 2 mps 764 mmHg 58%
    17:00 -3°C° 0 mm 2 mps 764 mmHg 60%
    18:00 -4°C° 0 mm 2 mps 764 mmHg 58%
    19:00 -4°C° 0 mm 2 mps 764 mmHg 57%
    20:00 -4°C° 0 mm 2 mps 764 mmHg 55%
    21:00 -2°C° 0 mm 1 mps 764 mmHg 54%
    22:00 -2°C° 0 mm 1 mps 764 mmHg 53%
    23:00 -2°C° 0 mm 1 mps 764 mmHg 51%

    Day after tomorrow, 17 November, Saturday

    Time Temperature Precipitation Wind Pressure Humidity
    00:00 -2°C° 0 mm 1 mps 764 mmHg 50%
    01:00 -2°C° 0 mm 1 mps 764 mmHg 50%
    02:00 -3°C° 0 mm 1 mps 763 mmHg 49%
    03:00 -3°C° 0 mm 1 mps 763 mmHg 48%
    04:00 -4°C° 0 mm 0 mps 763 mmHg 47%
    05:00 -4°C° 0 mm 0 mps 763 mmHg 46%
    06:00 -4°C° 0 mm 0 mps 763 mmHg 46%
    07:00 -4°C° 0 mm 0 mps 762 mmHg 46%
    08:00 -4°C° 0 mm 0 mps 762 mmHg 46%
    09:00 -2°C° 0 mm 0 mps 762 mmHg 44%
    10:00 -1°C° 0 mm 0 mps 762 mmHg 42%
    11:00 0°C° 0 mm 0 mps 761 mmHg 40%
    12:00 +1°C° 0 mm 1 mps 760 mmHg 43%
    13:00 +1°C° 0 mm 1 mps 760 mmHg 46%
    14:00 +1°C° 0 mm 1 mps 759 mmHg 48%
    15:00 -2°C° 0 mm 2 mps 759 mmHg 52%
    16:00 -2°C° 0 mm 2 mps 758 mmHg 55%
    17:00 -3°C° 0 mm 2 mps 758 mmHg 59%
    18:00 -3°C° 0 mm 2 mps 757 mmHg 61%
    19:00 -3°C° 0 mm 2 mps 756 mmHg 63%
    20:00 -4°C° 0 mm 3 mps 756 mmHg 64%
    21:00 -2°C° 0.1 mm 3 mps 755 mmHg 69%
    22:00 -2°C° 0.1 mm 3 mps 754 mmHg 74%
    23:00 -2°C° 0.1 mm 3 mps 753 mmHg 79%

    18 November, Sunday

    Time Temperature Precipitation Wind Pressure Humidity
    00:00 -2°C° 0.2 mm 3 mps 753 mmHg 82%
    01:00 -2°C° 0.2 mm 3 mps 752 mmHg 85%
    02:00 -2°C° 0.2 mm 3 mps 751 mmHg 88%
    03:00 -2°C° 0.2 mm 3 mps 750 mmHg 90%
    04:00 -2°C° 0.2 mm 3 mps 749 mmHg 92%
    05:00 -2°C° 0.2 mm 3 mps 748 mmHg 94%
    06:00 -2°C° 0.1 mm 2 mps 748 mmHg 95%
    07:00 -2°C° 0.1 mm 2 mps 747 mmHg 96%
    08:00 -1°C° 0.1 mm 2 mps 747 mmHg 96%
    09:00 -1°C° 0 mm 2 mps 747 mmHg 96%
    10:00 -1°C° 0 mm 2 mps 747 mmHg 95%
    11:00 +2°C° 0 mm 1 mps 746 mmHg 94%
    12:00 +2°C° 0 mm 1 mps 746 mmHg 95%
    13:00 +2°C° 0 mm 1 mps 746 mmHg 95%
    14:00 +2°C° 0 mm 1 mps 746 mmHg 96%
    15:00 +2°C° 0 mm 1 mps 746 mmHg 96%
    16:00 +1°C° 0 mm 1 mps 746 mmHg 96%
    17:00 +1°C° 0 mm 1 mps 746 mmHg 97%
    18:00 +1°C° 0 mm 1 mps 746 mmHg 97%
    19:00 +1°C° 0 mm 1 mps 746 mmHg 97%
    20:00 +1°C° 0 mm 1 mps 746 mmHg 96%
    21:00 0°C° 0 mm 1 mps 747 mmHg 96%
    22:00 0°C° 0 mm 1 mps 747 mmHg 96%
    23:00 0°C° 0 mm 1 mps 748 mmHg 96%

    19 November, Monday

    Time Temperature Precipitation Wind Pressure Humidity
    00:00 -2°C° 0.1 mm 2 mps 748 mmHg 96%
    01:00 -2°C° 0.1 mm 2 mps 748 mmHg 95%
    02:00 -2°C° 0.1 mm 2 mps 749 mmHg 95%
    03:00 -2°C° 0.1 mm 2 mps 749 mmHg 95%
    04:00 -2°C° 0.1 mm 2 mps 749 mmHg 94%
    05:00 -2°C° 0.1 mm 2 mps 749 mmHg 94%
    06:00 -2°C° 0.1 mm 2 mps 750 mmHg 93%
    07:00 -2°C° 0.1 mm 3 mps 750 mmHg 93%
    08:00 -2°C° 0.1 mm 3 mps 750 mmHg 92%
    09:00 -2°C° 0.1 mm 3 mps 751 mmHg 88%
    10:00 -2°C° 0.1 mm 3 mps 752 mmHg 83%
    11:00 -1°C° 0.1 mm 3 mps 752 mmHg 79%
    12:00 -1°C° 0 mm 3 mps 752 mmHg 75%
    13:00 -1°C° 0 mm 3 mps 753 mmHg 71%
    14:00 -1°C° 0 mm 3 mps 753 mmHg 67%
    15:00 -2°C° 0 mm 3 mps 754 mmHg 69%
    16:00 -4°C° 0 mm 3 mps 754 mmHg 70%
    17:00 -5°C° 0 mm 3 mps 754 mmHg 72%
    18:00 -5°C° 0 mm 3 mps 754 mmHg 72%
    19:00 -5°C° 0 mm 3 mps 755 mmHg 73%
    20:00 -6°C° 0 mm 3 mps 755 mmHg 74%
    21:00 -6°C° 0 mm 3 mps 755 mmHg 74%
    22:00 -6°C° 0 mm 3 mps 756 mmHg 75%
    23:00 -6°C° 0 mm 3 mps 756 mmHg 75%

    20 November, Tuesday

    Time Temperature Precipitation Wind Pressure Humidity
    00:00 -5°C° 0 mm 2 mps 756 mmHg 76%
    01:00 -5°C° 0 mm 2 mps 756 mmHg 76%
    02:00 -5°C° 0 mm 2 mps 756 mmHg 77%
    03:00 -5°C° 0 mm 2 mps 756 mmHg 77%
    04:00 -5°C° 0 mm 2 mps 756 mmHg 77%
    05:00 -5°C° 0 mm 2 mps 756 mmHg 78%
    06:00 -6°C° 0 mm 2 mps 756 mmHg 77%
    07:00 -6°C° 0 mm 2 mps 756 mmHg 77%
    08:00 -6°C° 0 mm 2 mps 756 mmHg 77%
    09:00 -5°C° 0 mm 2 mps 756 mmHg 74%
    10:00 -4°C° 0 mm 2 mps 756 mmHg 70%
    11:00 -3°C° 0 mm 2 mps 756 mmHg 67%
    12:00 -3°C° 0 mm 2 mps 755 mmHg 67%
    13:00 -2°C° 0 mm 2 mps 755 mmHg 68%
    14:00 -2°C° 0 mm 2 mps 755 mmHg 68%
    15:00 -3°C° 0 mm 2 mps 755 mmHg 71%
    16:00 -4°C° 0 mm 2 mps 755 mmHg 73%
    17:00 -5°C° 0 mm 2 mps 755 mmHg 76%
    18:00 -5°C° 0 mm 2 mps 755 mmHg 76%
    19:00 -5°C° 0 mm 2 mps 755 mmHg 76%
    20:00 -5°C° 0 mm 2 mps 755 mmHg 76%
    21:00 -5°C° 0 mm 2 mps 755 mmHg 76%
    22:00 -5°C° 0 mm 2 mps 754 mmHg 77%
    23:00 -5°C° 0 mm 2 mps 754 mmHg 77%
    Show more